| time (UTC) | temp F | wind direction | speed MPH | gust MPH | rain 1hr in | rain 24hr in | rain mn in | humidity % | barometer mb |
| 20260502164044 | 44 | 269 | 2.0 | 4.0 | 0.00 | 0.01 | 0.01 | 77 | 1008.8 |
| 20260502163545 | 45 | 193 | 2.0 | 5.0 | 0.00 | 0.01 | 0.01 | 78 | 1008.8 |
| 20260502163106 | 45 | 287 | 2.0 | 5.0 | 0.00 | 0.01 | 0.01 | 75 | 1008.8 |
| 20260502162545 | 46 | 193 | 2.0 | 5.0 | 0.00 | 0.01 | 0.01 | 81 | 1008.9 |
| 20260502162047 | 45 | 193 | 1.0 | 4.0 | 0.00 | 0.01 | 0.01 | 81 | 1008.9 |
| 20260502161547 | 44 | 193 | 1.0 | 4.0 | 0.00 | 0.01 | 0.01 | 81 | 1009.0 |
| 20260502161046 | 43 | 267 | 1.0 | 4.0 | 0.00 | 0.01 | 0.01 | 82 | 1009.0 |
| 20260502160546 | 43 | 256 | 1.0 | 3.0 | 0.00 | 0.01 | 0.01 | 84 | 1009.0 |
| 20260502152045 | 42 | 200 | 0.0 | 3.0 | 0.00 | 0.01 | 0.01 | 88 | 1009.2 |
| 20260502151551 | 42 | 329 | 1.0 | 3.0 | 0.00 | 0.01 | 0.01 | 86 | 1009.2 |
| 20260502151043 | 41 | 259 | 0.0 | 2.0 | 0.00 | 0.01 | 0.01 | 88 | 1009.2 |
| 20260502150544 | 41 | 193 | 0.0 | 2.0 | 0.00 | 0.01 | 0.01 | 89 | 1009.2 |
| 20260502130543 | 38 | 0 | 0.0 | 1.0 | 0.00 | 0.01 | 0.01 | 93 | 1009.5 |
| 20260502130104 | 38 | 0 | 0.0 | 1.0 | 0.00 | 0.01 | 0.01 | 93 | 1009.7 |
| 20260502123545 | 37 | 0 | 0.0 | 1.0 | 0.00 | 0.01 | 0.01 | 93 | 1009.6 |
| 20260502123103 | 37 | 228 | 0.0 | 1.0 | 0.00 | 0.01 | 0.01 | 94 | 1009.7 |
| 20260502122543 | 37 | 0 | 0.0 | 1.0 | 0.00 | 0.01 | 0.01 | 93 | 1009.8 |
| 20260502122046 | 37 | 193 | 0.0 | 1.0 | 0.00 | 0.01 | 0.01 | 93 | 1009.7 |
| 20260502121558 | 37 | 0 | 0.0 | 1.0 | 0.00 | 0.01 | 0.01 | 93 | 1009.8 |
| 20260502121046 | 37 | 0 | 0.0 | 1.0 | 0.00 | 0.01 | 0.01 | 94 | 1009.7 |
| 20260502120545 | 36 | 297 | 0.0 | 1.0 | 0.00 | 0.01 | 0.01 | 94 | 1009.7 |
| 20260502115549 | 36 | 0 | 0.0 | 2.0 | 0.00 | 0.01 | 0.01 | 93 | 1009.6 |
| 20260502115047 | 36 | 0 | 0.0 | 2.0 | 0.00 | 0.01 | 0.01 | 93 | 1009.8 |
| 20260502114555 | 36 | 250 | 0.0 | 2.0 | 0.00 | 0.01 | 0.01 | 93 | 1009.7 |
| 20260502114046 | 36 | 0 | 0.0 | 1.0 | 0.00 | 0.01 | 0.01 | 93 | 1009.7 |
| 20260502113547 | 36 | 0 | 0.0 | 1.0 | 0.00 | 0.01 | 0.01 | 93 | 1009.7 |
| 20260502113053 | 36 | 0 | 0.0 | 0.0 | 0.00 | 0.01 | 0.01 | 94 | 1009.7 |
| 20260502112546 | 36 | 0 | 0.0 | 1.0 | 0.00 | 0.01 | 0.01 | 93 | 1009.7 |
| 20260502112043 | 36 | 0 | 0.0 | 1.0 | 0.00 | 0.01 | 0.01 | 93 | 1009.6 |
| 20260502111554 | 36 | 0 | 0.0 | 0.0 | 0.00 | 0.01 | 0.01 | 93 | 1009.5 |
| 20260502111044 | 36 | 0 | 0.0 | 0.0 | 0.00 | 0.01 | 0.01 | 93 | 1009.7 |
| 20260502110547 | 36 | 0 | 0.0 | 1.0 | 0.00 | 0.01 | 0.01 | 93 | 1009.6 |
| 20260502110104 | 36 | 0 | 0.0 | 1.0 | 0.00 | 0.01 | 0.01 | 93 | 1009.7 |
| 20260502105545 | 36 | 0 | 0.0 | 1.0 | 0.00 | 0.01 | 0.01 | 93 | 1009.6 |
| 20260502105043 | 36 | 0 | 0.0 | 1.0 | 0.00 | 0.01 | 0.01 | 93 | 1009.6 |
| 20260502104554 | 36 | 0 | 0.0 | 0.0 | 0.00 | 0.01 | 0.01 | 93 | 1009.5 |
| 20260502104043 | 36 | 0 | 0.0 | 0.0 | 0.00 | 0.01 | 0.01 | 93 | 1009.5 |
| 20260502103544 | 36 | 0 | 0.0 | 1.0 | 0.00 | 0.01 | 0.01 | 93 | 1009.4 |
| 20260502103053 | 36 | 0 | 0.0 | 1.0 | 0.00 | 0.01 | 0.01 | 93 | 1009.5 |
| 20260502102544 | 35 | 0 | 0.0 | 0.0 | 0.00 | 0.01 | 0.01 | 93 | 1009.4 |
| 20260502102047 | 35 | 0 | 0.0 | 1.0 | 0.00 | 0.01 | 0.01 | 93 | 1009.3 |
| 20260502101555 | 35 | 0 | 0.0 | 1.0 | 0.01 | 0.01 | 0.01 | 92 | 1009.4 |
| 20260502101044 | 35 | 249 | 0.0 | 1.0 | 0.01 | 0.01 | 0.01 | 93 | 1009.4 |
| 20260502100544 | 35 | 0 | 0.0 | 1.0 | 0.01 | 0.01 | 0.01 | 92 | 1009.3 |
| 20260502091044 | 36 | 157 | 0.0 | 2.0 | 0.00 | 0.00 | 0.00 | 89 | 1009.5 |
| 20260502090546 | 37 | 0 | 0.0 | 2.0 | 0.00 | 0.00 | 0.00 | 88 | 1009.5 |
| 20260502071047 | 37 | 0 | 0.0 | 1.0 | 0.00 | 0.00 | 0.00 | 88 | 1009.6 |
| 20260502070543 | 38 | 173 | 0.0 | 1.0 | 0.00 | 0.00 | 0.00 | 86 | 1009.6 |
| 20260502070057 | 38 | 0 | 0.0 | 1.0 | 0.00 | 0.00 | 0.00 | 85 | 1009.6 |
| 20260502065544 | 39 | 0 | 0.0 | 1.0 | 0.00 | 0.00 | 0.00 | 81 | 1009.5 |
| 20260502065043 | 39 | 178 | 0.0 | 1.0 | 0.00 | 0.00 | 0.00 | 78 | 1009.5 |
| 20260502064550 | 39 | 0 | 0.0 | 0.0 | 0.00 | 0.00 | 0.00 | 72 | 1009.7 |
| 20260502064043 | 39 | 0 | 0.0 | 1.0 | 0.00 | 0.00 | 0.00 | 70 | 1009.4 |
| 20260502063547 | 40 | 178 | 0.0 | 1.0 | 0.00 | 0.00 | 0.00 | 71 | 1009.4 |
| 20260502063049 | 40 | 0 | 0.0 | 1.0 | 0.00 | 0.00 | 0.00 | 71 | 1009.5 |
| 20260502062544 | 40 | 0 | 0.0 | 0.0 | 0.00 | 0.00 | 0.00 | 69 | 1009.6 |
| 20260502062044 | 40 | 0 | 0.0 | 0.0 | 0.00 | 0.00 | 0.00 | 70 | 1009.6 |
| 20260502061548 | 40 | 0 | 0.0 | 0.0 | 0.00 | 0.00 | 0.00 | 72 | 1009.6 |
| 20260502061044 | 39 | 0 | 0.0 | 1.0 | 0.00 | 0.00 | 0.00 | 71 | 1009.6 |
| 20260502060543 | 39 | 147 | 0.0 | 1.0 | 0.00 | 0.00 | 0.00 | 69 | 1009.5 |
| 20260502060057 | 39 | 147 | 0.0 | 1.0 | 0.00 | 0.00 | 0.00 | 70 | 1009.6 |
| 20260502055544 | 39 | 0 | 0.0 | 1.0 | 0.00 | 0.00 | 0.00 | 71 | 1009.7 |
| 20260502055043 | 39 | 0 | 0.0 | 1.0 | 0.00 | 0.00 | 0.00 | 68 | 1009.8 |
| 20260502054558 | 39 | 148 | 0.0 | 0.0 | 0.00 | 0.00 | 0.00 | 70 | 1009.8 |
| 20260502054043 | 39 | 0 | 0.0 | 0.0 | 0.00 | 0.00 | 0.00 | 69 | 1009.7 |
| 20260502053544 | 39 | 148 | 0.0 | 0.0 | 0.00 | 0.00 | 0.00 | 69 | 1009.7 |
| 20260502053052 | 39 | 148 | 0.0 | 0.0 | 0.00 | 0.00 | 0.00 | 71 | 1009.7 |
| 20260502052548 | 39 | 0 | 0.0 | 0.0 | 0.00 | 0.00 | 0.00 | 69 | 1009.7 |
| 20260502052048 | 39 | 0 | 0.0 | 0.0 | 0.00 | 0.00 | 0.00 | 67 | 1009.7 |
| 20260502051556 | 39 | 0 | 0.0 | 0.0 | 0.00 | 0.00 | 0.00 | 69 | 1009.7 |
| 20260502051043 | 39 | 148 | 0.0 | 0.0 | 0.00 | 0.00 | 0.00 | 70 | 1009.8 |
| 20260502050543 | 39 | 148 | 0.0 | 0.0 | 0.00 | 0.00 | 0.00 | 71 | 1009.7 |
| 20260502050052 | 39 | 148 | 0.0 | 0.0 | 0.00 | 0.00 | 0.00 | 70 | 1009.7 |
| 20260502045546 | 39 | 148 | 0.0 | 0.0 | 0.00 | 0.00 | 0.00 | 66 | 1009.7 |
| 20260502045044 | 39 | 0 | 0.0 | 1.0 | 0.00 | 0.00 | 0.00 | 67 | 1009.8 |
| 20260502044557 | 39 | 0 | 0.0 | 1.0 | 0.00 | 0.00 | 0.00 | 68 | 1009.7 |
| 20260502044044 | 39 | 0 | 0.0 | 0.0 | 0.00 | 0.00 | 0.00 | 68 | 1009.8 |
| 20260502043543 | 39 | 0 | 0.0 | 1.0 | 0.00 | 0.00 | 0.00 | 69 | 1009.8 |
| 20260502043102 | 39 | 148 | 0.0 | 1.0 | 0.00 | 0.00 | 0.00 | 67 | 1009.8 |
| 20260502042544 | 39 | 148 | 0.0 | 1.0 | 0.00 | 0.00 | 0.00 | 65 | 1009.8 |
| 20260502042041 | 39 | 148 | 0.0 | 1.0 | 0.00 | 0.00 | 0.00 | 69 | 1009.8 |
| 20260502041551 | 39 | 148 | 0.0 | 1.0 | 0.00 | 0.00 | 0.00 | 68 | 1009.8 |
| 20260502041059 | 39 | 148 | 0.0 | 0.0 | 0.00 | 0.00 | 0.00 | 67 | 1009.7 |
| 20260502040544 | 39 | 148 | 0.0 | 0.0 | 0.00 | 0.00 | 0.00 | 68 | 1009.8 |
| 20260502040047 | 39 | 148 | 0.0 | 1.0 | 0.00 | 0.00 | 0.00 | 70 | 1009.8 |
| 20260502035547 | 39 | 148 | 0.0 | 1.0 | 0.00 | 0.00 | 0.00 | 68 | 1009.9 |
| 20260502035045 | 39 | 148 | 0.0 | 1.0 | 0.00 | 0.00 | 0.00 | 69 | 1009.8 |
| 20260502034549 | 39 | 148 | 0.0 | 1.0 | 0.00 | 0.00 | 0.00 | 67 | 1009.9 |
| 20260502034044 | 39 | 148 | 0.0 | 1.0 | 0.00 | 0.00 | 0.00 | 68 | 1009.8 |
| 20260502033545 | 39 | 148 | 0.0 | 1.0 | 0.00 | 0.00 | 0.00 | 66 | 1009.8 |
| 20260502033050 | 39 | 148 | 0.0 | 1.0 | 0.00 | 0.00 | 0.00 | 66 | 1009.8 |
| 20260502032544 | 39 | 148 | 0.0 | 1.0 | 0.00 | 0.00 | 0.00 | 66 | 1009.7 |
| 20260502032044 | 40 | 148 | 0.0 | 1.0 | 0.00 | 0.00 | 0.00 | 65 | 1009.9 |
| 20260502031551 | 40 | 148 | 0.0 | 0.0 | 0.00 | 0.00 | 0.00 | 68 | 1009.9 |
| 20260502031047 | 40 | 148 | 0.0 | 0.0 | 0.00 | 0.00 | 0.00 | 68 | 1009.8 |
| 20260502030548 | 40 | 148 | 0.0 | 0.0 | 0.00 | 0.00 | 0.00 | 68 | 1009.7 |
| 20260502030050 | 40 | 148 | 0.0 | 0.0 | 0.00 | 0.00 | 0.00 | 66 | 1009.8 |
| 20260502025545 | 40 | 148 | 0.0 | 0.0 | 0.00 | 0.00 | 0.00 | 66 | 1009.7 |
| 20260502025045 | 40 | 148 | 0.0 | 0.0 | 0.00 | 0.00 | 0.00 | 68 | 1009.7 |
| 20260502024549 | 40 | 148 | 0.0 | 0.0 | 0.00 | 0.00 | 0.00 | 67 | 1009.7 |
| 20260502024045 | 40 | 0 | 0.0 | 0.0 | 0.00 | 0.00 | 0.00 | 68 | 1009.7 |
| 20260502023547 | 41 | 0 | 0.0 | 0.0 | 0.00 | 0.00 | 0.00 | 65 | 1009.9 |
| 20260502023048 | 41 | 148 | 0.0 | 0.0 | 0.00 | 0.00 | 0.00 | 68 | 1009.7 |
| 20260502022544 | 41 | 0 | 0.0 | 0.0 | 0.00 | 0.00 | 0.00 | 68 | 1009.7 |
| 20260502022046 | 40 | 0 | 0.0 | 0.0 | 0.00 | 0.00 | 0.00 | 67 | 1009.8 |
| 20260502021549 | 40 | 0 | 0.0 | 0.0 | 0.00 | 0.00 | 0.00 | 64 | 1009.8 |
| 20260502021047 | 40 | 148 | 0.0 | 0.0 | 0.00 | 0.00 | 0.00 | 67 | 1009.8 |
| 20260502020544 | 40 | 148 | 0.0 | 0.0 | 0.00 | 0.00 | 0.00 | 64 | 1009.8 |
| 20260502020053 | 40 | 148 | 0.0 | 0.0 | 0.00 | 0.00 | 0.00 | 64 | 1009.8 |
| 20260502015544 | 40 | 0 | 0.0 | 0.0 | 0.00 | 0.00 | 0.00 | 69 | 1009.8 |
| 20260502015045 | 40 | 0 | 0.0 | 0.0 | 0.00 | 0.00 | 0.00 | 69 | 1009.9 |
| 20260502014556 | 40 | 148 | 0.0 | 0.0 | 0.00 | 0.00 | 0.00 | 67 | 1009.8 |
| 20260502014045 | 40 | 148 | 0.0 | 1.0 | 0.00 | 0.00 | 0.00 | 68 | 1009.7 |
| 20260502013544 | 40 | 148 | 0.0 | 1.0 | 0.00 | 0.00 | 0.00 | 67 | 1009.7 |
| 20260502013055 | 40 | 148 | 0.0 | 0.0 | 0.00 | 0.00 | 0.00 | 67 | 1009.8 |
| 20260502012544 | 40 | 148 | 0.0 | 1.0 | 0.00 | 0.00 | 0.00 | 65 | 1009.6 |
| 20260502012044 | 41 | 148 | 0.0 | 1.0 | 0.00 | 0.00 | 0.00 | 66 | 1009.6 |
| 20260502011553 | 41 | 0 | 0.0 | 1.0 | 0.00 | 0.00 | 0.00 | 63 | 1009.7 |
| 20260502011043 | 42 | 94 | 0.0 | 1.0 | 0.00 | 0.00 | 0.00 | 64 | 1009.7 |
| 20260502010543 | 42 | 0 | 0.0 | 1.0 | 0.00 | 0.00 | 0.00 | 63 | 1009.7 |
| 20260502010050 | 42 | 0 | 0.0 | 1.0 | 0.00 | 0.00 | 0.00 | 63 | 1009.7 |
| 20260502005544 | 42 | 0 | 0.0 | 1.0 | 0.00 | 0.00 | 0.00 | 60 | 1009.7 |
| 20260502005045 | 42 | 94 | 0.0 | 1.0 | 0.00 | 0.00 | 0.00 | 63 | 1009.6 |
| 20260502004554 | 42 | 0 | 0.0 | 1.0 | 0.00 | 0.00 | 0.00 | 63 | 1009.6 |
| 20260502004049 | 43 | 0 | 0.0 | 1.0 | 0.00 | 0.00 | 0.00 | 60 | 1009.5 |
| 20260502003544 | 43 | 0 | 0.0 | 1.0 | 0.00 | 0.00 | 0.00 | 61 | 1009.6 |
| 20260502003048 | 43 | 0 | 0.0 | 1.0 | 0.00 | 0.00 | 0.00 | 61 | 1009.5 |
| 20260502002544 | 43 | 94 | 0.0 | 1.0 | 0.00 | 0.00 | 0.00 | 61 | 1009.3 |
| 20260502002045 | 43 | 0 | 0.0 | 1.0 | 0.00 | 0.00 | 0.00 | 61 | 1009.2 |
| 20260502001547 | 43 | 0 | 0.0 | 1.0 | 0.00 | 0.00 | 0.00 | 60 | 1009.2 |
| 20260502001044 | 43 | 0 | 0.0 | 1.0 | 0.00 | 0.00 | 0.00 | 62 | 1009.1 |
| 20260502000545 | 44 | 94 | 0.0 | 1.0 | 0.00 | 0.00 | 0.00 | 60 | 1009.1 |
| 20260501235544 | 44 | 0 | 0.0 | 1.0 | 0.00 | 0.01 | 0.00 | 60 | 1009.0 |
| 20260501235044 | 44 | 94 | 0.0 | 1.0 | 0.00 | 0.01 | 0.00 | 58 | 1009.0 |
| 20260501234550 | 44 | 94 | 0.0 | 1.0 | 0.00 | 0.01 | 0.00 | 56 | 1008.8 |
| 20260501234045 | 45 | 0 | 0.0 | 0.0 | 0.00 | 0.01 | 0.00 | 56 | 1008.7 |
| 20260501233544 | 45 | 0 | 0.0 | 1.0 | 0.00 | 0.01 | 0.00 | 56 | 1008.5 |
| 20260501233102 | 45 | 0 | 0.0 | 1.0 | 0.00 | 0.01 | 0.00 | 56 | 1008.6 |
| 20260501232548 | 46 | 0 | 0.0 | 1.0 | 0.00 | 0.01 | 0.00 | 56 | 1008.5 |
| 20260501232048 | 46 | 0 | 0.0 | 2.0 | 0.00 | 0.01 | 0.00 | 51 | 1008.6 |
| 20260501231557 | 47 | 0 | 0.0 | 2.0 | 0.00 | 0.01 | 0.00 | 55 | 1008.6 |
| 20260501231044 | 47 | 311 | 0.0 | 3.0 | 0.00 | 0.01 | 0.00 | 51 | 1008.5 |
| 20260501230543 | 47 | 316 | 0.0 | 3.0 | 0.00 | 0.01 | 0.00 | 52 | 1008.5 |
| 20260501230100 | 47 | 321 | 0.0 | 1.0 | 0.00 | 0.01 | 0.00 | 52 | 1008.3 |
| 20260501225547 | 47 | 0 | 0.0 | 2.0 | 0.00 | 0.03 | 0.00 | 52 | 1008.2 |
| 20260501225045 | 48 | 275 | 0.0 | 2.0 | 0.00 | 0.03 | 0.00 | 49 | 1008.3 |
| 20260501224554 | 48 | 60 | 0.0 | 2.0 | 0.00 | 0.03 | 0.00 | 47 | 1008.2 |
| 20260501224045 | 48 | 286 | 0.0 | 2.0 | 0.00 | 0.03 | 0.00 | 52 | 1008.1 |
| 20260501223545 | 47 | 283 | 0.0 | 2.0 | 0.00 | 0.03 | 0.00 | 52 | 1008.1 |
| 20260501223052 | 47 | 271 | 0.0 | 2.0 | 0.00 | 0.03 | 0.00 | 52 | 1008.2 |
| 20260501222545 | 47 | 309 | 0.0 | 3.0 | 0.00 | 0.03 | 0.00 | 52 | 1008.2 |
| 20260501222045 | 47 | 0 | 0.0 | 3.0 | 0.00 | 0.03 | 0.00 | 54 | 1008.1 |
| 20260501221547 | 47 | 253 | 0.0 | 2.0 | 0.00 | 0.03 | 0.00 | 53 | 1008.2 |
| 20260501221044 | 48 | 248 | 0.0 | 3.0 | 0.00 | 0.03 | 0.00 | 47 | 1008.2 |
| 20260501220541 | 48 | 301 | 1.0 | 3.0 | 0.00 | 0.03 | 0.00 | 46 | 1008.3 |
| 20260501220055 | 48 | 178 | 1.0 | 2.0 | 0.00 | 0.03 | 0.00 | 50 | 1008.3 |
| 20260501215542 | 48 | 0 | 1.0 | 3.0 | 0.00 | 0.09 | 0.00 | 48 | 1008.2 |
| 20260501215041 | 48 | 280 | 0.0 | 3.0 | 0.00 | 0.09 | 0.00 | 45 | 1008.3 |
| 20260501214548 | 48 | 261 | 1.0 | 3.0 | 0.00 | 0.09 | 0.00 | 47 | 1008.3 |
| 20260501214045 | 48 | 284 | 1.0 | 3.0 | 0.00 | 0.09 | 0.00 | 47 | 1008.1 |
| 20260501213541 | 48 | 256 | 1.0 | 3.0 | 0.00 | 0.09 | 0.00 | 51 | 1008.1 |
| 20260501213047 | 48 | 252 | 1.0 | 4.0 | 0.00 | 0.09 | 0.00 | 46 | 1008.1 |
| 20260501212547 | 48 | 258 | 1.0 | 4.0 | 0.00 | 0.09 | 0.00 | 44 | 1008.0 |
| 20260501212045 | 48 | 360 | 2.0 | 3.0 | 0.00 | 0.09 | 0.00 | 43 | 1008.1 |
| 20260501211549 | 48 | 275 | 1.0 | 4.0 | 0.00 | 0.09 | 0.00 | 47 | 1007.9 |
| 20260501211041 | 49 | 249 | 2.0 | 4.0 | 0.00 | 0.09 | 0.00 | 44 | 1008.0 |
| 20260501210544 | 49 | 260 | 1.0 | 3.0 | 0.00 | 0.09 | 0.00 | 47 | 1008.0 |
| 20260501210054 | 49 | 257 | 1.0 | 5.0 | 0.00 | 0.09 | 0.00 | 43 | 1008.0 |
| 20260501205542 | 49 | 278 | 2.0 | 6.0 | 0.00 | 0.22 | 0.00 | 45 | 1008.1 |
| 20260501205044 | 50 | 5 | 3.0 | 7.0 | 0.00 | 0.22 | 0.00 | 42 | 1008.0 |
| 20260501204549 | 50 | 254 | 3.0 | 7.0 | 0.00 | 0.22 | 0.00 | 42 | 1007.9 |
| 20260501204044 | 50 | 259 | 1.0 | 5.0 | 0.00 | 0.22 | 0.00 | 46 | 1007.9 |
| 20260501203544 | 49 | 288 | 1.0 | 4.0 | 0.00 | 0.22 | 0.00 | 44 | 1008.0 |
| 20260501203048 | 48 | 276 | 1.0 | 7.0 | 0.00 | 0.22 | 0.00 | 44 | 1008.0 |
| 20260501202544 | 48 | 271 | 1.0 | 7.0 | 0.00 | 0.22 | 0.00 | 43 | 1008.0 |
| 20260501202041 | 49 | 76 | 1.0 | 6.0 | 0.00 | 0.22 | 0.00 | 43 | 1008.0 |
| 20260501201556 | 49 | 178 | 2.0 | 6.0 | 0.00 | 0.22 | 0.00 | 42 | 1008.0 |
| 20260501201045 | 49 | 0 | 2.0 | 5.0 | 0.00 | 0.22 | 0.00 | 45 | 1008.0 |
| 20260501200544 | 49 | 127 | 2.0 | 5.0 | 0.00 | 0.22 | 0.00 | 41 | 1008.0 |
| 20260501200047 | 49 | 276 | 2.0 | 6.0 | 0.00 | 0.22 | 0.00 | 44 | 1008.1 |
| 20260501195545 | 49 | 252 | 3.0 | 6.0 | 0.00 | 0.24 | 0.00 | 42 | 1008.0 |
| 20260501195045 | 50 | 257 | 2.0 | 8.0 | 0.00 | 0.24 | 0.00 | 41 | 1008.1 |
| 20260501194550 | 50 | 295 | 1.0 | 8.0 | 0.00 | 0.24 | 0.00 | 43 | 1008.0 |
| 20260501194044 | 51 | 28 | 3.0 | 7.0 | 0.00 | 0.24 | 0.00 | 42 | 1008.1 |
| 20260501193541 | 51 | 18 | 2.0 | 7.0 | 0.00 | 0.24 | 0.00 | 41 | 1008.0 |
| 20260501193053 | 49 | 290 | 4.0 | 7.0 | 0.00 | 0.24 | 0.00 | 44 | 1008.0 |
| 20260501192541 | 49 | 275 | 3.0 | 6.0 | 0.00 | 0.24 | 0.00 | 42 | 1008.1 |
| 20260501192045 | 49 | 290 | 2.0 | 6.0 | 0.00 | 0.24 | 0.00 | 44 | 1008.1 |
| 20260501191550 | 49 | 297 | 2.0 | 7.0 | 0.00 | 0.24 | 0.00 | 44 | 1008.2 |
| 20260501191047 | 49 | 259 | 2.0 | 7.0 | 0.00 | 0.24 | 0.00 | 47 | 1008.1 |
| 20260501190544 | 50 | 34 | 3.0 | 6.0 | 0.00 | 0.24 | 0.00 | 42 | 1008.3 |
| 20260501190049 | 49 | 178 | 2.0 | 8.0 | 0.00 | 0.24 | 0.00 | 44 | 1008.2 |
| 20260501185544 | 50 | 285 | 3.0 | 8.0 | 0.00 | 0.24 | 0.00 | 42 | 1008.3 |
| 20260501185045 | 50 | 264 | 1.0 | 7.0 | 0.00 | 0.24 | 0.00 | 47 | 1008.3 |
| 20260501184558 | 51 | 335 | 3.0 | 7.0 | 0.00 | 0.24 | 0.00 | 43 | 1008.3 |
| 20260501184046 | 51 | 262 | 3.0 | 9.0 | 0.00 | 0.24 | 0.00 | 43 | 1008.3 |
| 20260501183542 | 52 | 238 | 3.0 | 11.0 | 0.00 | 0.24 | 0.00 | 42 | 1008.5 |
| 20260501183056 | 52 | 300 | 3.0 | 11.0 | 0.00 | 0.24 | 0.00 | 43 | 1008.5 |
| 20260501182546 | 51 | 254 | 3.0 | 8.0 | 0.00 | 0.24 | 0.00 | 46 | 1008.5 |
| 20260501182041 | 51 | 178 | 3.0 | 8.0 | 0.00 | 0.24 | 0.00 | 46 | 1008.4 |
| 20260501181559 | 50 | 289 | 3.0 | 7.0 | 0.00 | 0.24 | 0.00 | 45 | 1008.4 |
| 20260501181044 | 49 | 250 | 2.0 | 10.0 | 0.00 | 0.24 | 0.00 | 47 | 1008.5 |
| 20260501180541 | 49 | 266 | 3.0 | 10.0 | 0.00 | 0.24 | 0.00 | 46 | 1008.4 |